Home > Weather > Kornwestheim > Past weeks

Flag for Germany Past Weather in Kornwestheim, Baden-Württemberg, Germany — Yesterday and Last 2 Weeks

Now
75 °F

Scattered clouds.


Feels Like: 77 °F
Forecast: 61 / 75 °F
Wind: 10 mph from Northwest

Location: Stuttgart-Echterdingen

Current Time: Jul 26, 2016 at 4:08:35 PM

Latest Report: Jul 26, 2016 at 3:20 PM


Visibility: N/A

Pressure: 30.09 "Hg

Humidity: 69%

Dew Point: 64 °F

Location of KornwestheimLocation

Past Weather in Kornwestheim — Graph

°F

Kornwestheim Temperature Yesterday

Maximum temperature yesterday: 81 °F (at 3:20 PM)
Minimum temperature yesterday: 64 °F (at 4:50 AM)
Average temperature yesterday: 72 °F

High & Low Weather Summary for the Past Weeks

 TemperatureHumidityPressure
High91 °F (Jul 20, 4:20 PM)100% (Jul 18, 6:20 AM)30.33 "Hg (Jul 18, 6:20 AM)
Low48 °F (Jul 15, 5:50 AM)28% (Jul 20, 4:50 PM)29.92 "Hg (Jul 11, 3:20 PM)
Average68 °F72%30.10 "Hg
* Reported Jul 11 3:20 PM — Jul 26 3:20 PM, Kornwestheim, Weather by CustomWeather, © 2016

Note: Actual official high and low records may vary slightly from our data, if they occured in-between our weather recording intervals... More about our weather records

Advertising

Kornwestheim Weather History for the Previous 24 Hours

Scroll right to see more
 ConditionsComfort  
Time TempWeatherWind HumidityBarometerVisibility
3:20 PM
Tue, Jul 26
75 °FScattered clouds.10 mph69%30.09 "HgN/A
2:20 PM79 °FThundershowers. Scattered clouds.5 mph54%30.09 "HgN/A
1:50 PM81 °FPartly sunny.6 mph51%30.09 "HgN/A
1:20 PM79 °FScattered clouds.3 mph58%30.12 "HgN/A
12:50 PM79 °FScattered clouds.3 mph54%30.12 "HgN/A
12:20 PM79 °FScattered clouds.6 mph54%30.12 "HgN/A
11:50 AM77 °FScattered clouds.2 mph61%30.12 "HgN/A
11:20 AM77 °FPassing clouds.3 mph57%30.12 "HgN/A
10:50 AM75 °FPassing clouds.2 mph69%30.12 "HgN/A
10:20 AM73 °FPassing clouds.3 mph69%30.12 "HgN/A
9:50 AM73 °FPassing clouds.2 mph74%30.15 "HgN/A
9:20 AM72 °FPassing clouds.2 mph73%30.15 "HgN/A
8:50 AM72 °FPassing clouds.2 mph73%30.15 "HgN/A
8:20 AM70 °FPassing clouds.1 mph78%30.15 "HgN/A
7:50 AM66 °FPassing clouds.1 mph88%30.15 "HgN/A
7:20 AM66 °FPassing clouds.1 mph83%30.12 "HgN/A
6:50 AM66 °FScattered clouds.2 mph83%30.12 "HgN/A
6:20 AM64 °FPassing clouds.2 mph88%30.12 "HgN/A
5:50 AM64 °FPassing clouds.2 mph88%30.12 "HgN/A
5:20 AM64 °FPassing clouds.3 mph83%30.12 "HgN/A
4:50 AM64 °FPartly cloudy.1 mph88%30.12 "HgN/A
4:20 AM64 °FPartly cloudy.5 mph88%30.12 "HgN/A
3:50 AM64 °FPassing clouds.1 mph83%30.12 "HgN/A
3:20 AM64 °FPartly cloudy.5 mph78%30.12 "HgN/A
2:50 AM66 °FPassing clouds.5 mph83%30.12 "HgN/A
2:20 AM66 °FPassing clouds.5 mph83%30.12 "HgN/A
1:50 AM66 °FPassing clouds.3 mph83%30.12 "HgN/A
1:20 AM66 °FPassing clouds.7 mph83%30.12 "HgN/A
12:50 AM66 °FPassing clouds.6 mph83%30.12 "HgN/A
12:20 AM68 °FPassing clouds.2 mph78%30.12 "HgN/A
11:50 PM
Mon, Jul 25
68 °FPassing clouds.1 mph78%30.12 "HgN/A
11:20 PM70 °FPassing clouds.2 mph69%30.12 "HgN/A
10:50 PM70 °FPassing clouds.No wind73%30.12 "HgN/A
10:20 PM72 °FPassing clouds.3 mph69%30.12 "HgN/A
9:50 PM72 °FPassing clouds.3 mph69%30.12 "HgN/A
9:20 PM73 °FPassing clouds.6 mph65%30.12 "HgN/A
8:50 PM75 °FPassing clouds.5 mph61%30.12 "HgN/A
8:20 PM77 °FPassing clouds.9 mph57%30.09 "HgN/A
7:50 PM77 °FScattered clouds.10 mph57%30.09 "HgN/A
7:20 PM79 °FPartly sunny.12 mph54%30.09 "HgN/A
6:50 PM79 °FPartly sunny.13 mph51%30.09 "HgN/A
6:20 PM79 °FBroken clouds.13 mph54%30.09 "HgN/A
5:50 PM81 °FBroken clouds.12 mph54%30.09 "HgN/A
5:20 PM79 °FBroken clouds.15 mph58%30.09 "HgN/A
4:50 PM79 °FBroken clouds.14 mph58%30.09 "HgN/A
4:20 PM81 °FBroken clouds.13 mph54%30.09 "HgN/A
Weather by CustomWeather, © 2016

See weather overviewHow to use our weather pages